No identification:

 

2001 VE2                                                                    

Epoch 2001 Oct. 18.0 TT = JDT 2452200.5                 Nakano

M 287.80468              (2000.0)            P               Q

n   0.84212444     Peri.   72.52043     -0.49735545     -0.86565303

a   1.1105852      Node    47.44542     +0.76353451     -0.46812445

e   0.1822970      Incl.    4.46072     +0.41188908     -0.17749457

P   1.17           H   24.8           G   0.15           U   7

Residuals in seconds of arc 

011109 704  0.1+  0.3-    011110 046  0.3-  0.5-    011111 704  0.3-  0.7+  

011109 704  0.4+  0.1+    011110 046  0.3-  0.4-    011111 649  0.1+  0.2-  

011109 704  0.2+  0.2-    011110 046  0.3-  0.7-    011111 649  0.0   0.1-  

011109 704  0.4-  0.8+    011111 557  0.1-  0.2-    011111 649  0.2+  0.2-  

011109 704  0.0   0.2+    011111 557  0.1-  0.1-    011111 704  0.1-  0.3+  

011110 611  1.4-  1.8-    011111 557  0.3+  0.0     011111 704 (2.1-  0.8+) 

011110 611 (0.7-  2.7+)   011111 557  0.1+  0.3-    011111 704  0.1+  0.2+  

011110 611  0.3-  0.2+    011111 118  0.2+  0.3-    011111 704 (0.1+  2.0+) 

011110 611  0.9-  1.9+    011111 118  0.2+  0.2-    011111 918 (2.0+  1.2+) 

011110 611  0.9-  1.4+    011111 118  0.1-  0.5-    011111 918  0.5+  0.3+  

011110 704  0.7+  1.1-    011111 118  0.1-  0.0     011111 918 (2.2-  1.6-) 

011110 704  0.3-  0.4-    011111 611  1.5+  0.2+    011111 704  0.2+  0.5-  

011110 704 (2.9+  0.6+)   011111 611  0.2-  0.8-    011111 704 (2.2-  0.7+) 

011110 704  0.3+  0.0     011111 611  0.9+  0.5-    011114 402  0.2+  0.4+  

011110 704  0.5+  0.3+    011111 611  0.8+  0.4+    011114 402  1.1-  0.9-  

011110 046  0.1-  0.2+    011111 704  0.2-  0.7+    011114 402  0.2+  0.5+  

011110 046  0.1+  0.0     011111 704  0.4-  0.5+    011114 402  0.3+  0.1+  

011110 046  0.1+  0.7+    011111 704  0.5-  0.4+    011114 402  0.0   0.2+  

 

 

Date/  0h TT  R.A.(2000) Decl.     Delta   r     Daily motion  Mag.  Moon Age

                h  m       ¡  ,                      ,  / PA ¡  V       ¡

2001 Nov. 15  06 03.12  +50 14.5   0.017  1.002   595.2 /  43  17.7  130  .00

          16  06 52.87  +56 54.2   0.017  0.999   639.8 /  53  17.8  131  .01

          17  08 06.64  +62 07.8   0.016  0.996   643.6 /  69  18.1  129  .04

          18  09 40.49  +64 07.6   0.016  0.993   605.3 /  90  18.4  126  .09

          19  11 09.23  +62 21.7   0.017  0.991   538.3 / 110  18.8  123  .15

          20  12 14.00  +58 16.0   0.018  0.988   460.7 / 124  19.3  122  .23

  

NAKANO

         **** Don't distribute anyone except personal use only ****

                (C) Copyright 2001 OAA/ComputingSection

write mail from CFAD0::NAKANO on 2001-11-15 23:38:01(JST).

 



–ß‚è‚Ü‚·B